SCP
0 -0 -0 -0 -0 -0 -0 -0 -0 -0 0 0 0 0 0 0 0 0 0 0 0 0 0 0 0 0 0 0 0 0 0 0 0 0 0 0 0 0 0 0 0 0 0
-0 -0 -0 -0 -0 -0 -0 -0 -0 0 0 0 0 0 0 0 0 0 0 0 0 0 0 0 0 0 0 0 0 0 0 0 0 0 0 0 0 0 0 0 0 -0 -0
-0 0 0 0 0 -0 -0 -0 0 0 0 0 0 0 0 0 0 0 0 0 0 0 0 0 0 0 0 0 0 0 0 0 0 0 0 0 0 0 0 0 0 -0 -0
0 0 0 0 0 0 0 0 0 0 0 0 0 0 -0 0 0 0 0 0 0 -0 -0 0 0 0 -0 0 0 0 0 0 0 0 0 0 0 0 0 0 0 0 0
0 0 0 0 0 0 0 0 0 0 0 0 0 0 0 0 0 0 -0 -0 -0 -0 -0 -0 -0 -0 0 0 0 0 0 0 0 0 0 0 0 0 0 0 0 0 0
0 0 0 0 0 0 0 0 0 0 0 0 0 0 0 0 0 0 0 -0 -0 -0 -0 -0 -0 -0 0 0 0 0 0 0 0 0 0 0 0 0 0 0 0 0 0
0 0 0 0 0 0 0 0 0 0 0 0 0 0 0 0 0 0 0 -0 -0 -0 -0 -0 -0 -0 -0 0 0 0 0 0 0 0 0 0 0 0 0 0 0 0 0
0 0 0 0 0 0 0 0 0 0 0 0 0 0 0 0 0 0 0 0 -0 0 -0 -0 0 0 0 0 0 0 0 0 0 0 0 0 0 0 0 0 0 0 0
0 0 0 0 0 0 0 0 0 0 0 0 0 0 0 0 0 0 0 0 0 0 0 0 0 0 0 0 0 0 0 0 0 0 0 0 0 0 0 0 0 0 0
0 0 0 0 0 0 0 0 0 0 0 0 0 0 0 0 0 0 0 0 0 0 0 0 0 0 0 0 0 0 0 0 0 0 0 0 0 0 0 0 0 0 0
0 0 0 0 0 0 0 0 0 0 0 0 0 0 0 0 0 0 0 0 0 0 0 0 0 0 0 0 0 0 0 0 0 0 0 0 0 0 0 0 0 0 0
0 0 0 0 0 0 0 0 0 0 0 0 0 0 0 0 0 0 0 0 0 0 0 0 0 0 0 0 0 0 0 0 0 0 0 0 0 0 0 0 0 0 0
0 0 0 0 0 0 0 0 0 0 0 0 0 0 0 0 0 0 0 0 0 0 0 0 0 0 0 0 0 0 0 0 0 0 0 0 0 0 0 0 0 0 0
0 0 0 0 0 0 0 0 0 0 0 0 0 0 0 0 0 0 0 0 0 0 0 0 0 0 0 0 0 0 0 0 0 0 0 0 0 0 0 0 0 0 0
0 0 0 0 0 0 0 0 0 0 0 0 0 0 0 0 0 0 0 0 0 0 0 0 0 0 0 0 0 0 0 0 0 0 0 0 0 0 0 0 0 0 0
0 0 0 0 0 0 0 0 0 0 0 0 0 0 0 0 0 0 0 0 0 0 0 0 0 0 0 0 0 0 0 0 0 0 0 0 0 0 0 0 0 0 0
0 0 0 0 0 0 0 0 0 0 0 0 0 0 0 0 0 0 0 0 0 0 0 0 0 0 0 0 0 0 0 0 0 0 0 0 0 0 0 0 0 0 0
0 0 0 0 0 0 0 0 0 0 0 0 0 0 0 0 0 0 0 0 0 0 0 0 0 0 0 0 0 0 0 0 0 0 0 0 0 0 0 0 0 0 0
0 0 0 0 0 0 0 0 0 0 0 0 0 0 0 0 0 0 0 0 0 0 0 0 0 0 0 0 0 0 0 0 0 0 0 0 0 0 0 0 0 0 0
0 0 0 0 0 0 0 0 0 0 0 0 0 0 0 0 0 0 0 0 0 0 0 0 0 0 0 0 0 0 0 0 0 0 0 0 0 0 0 0 0 0 0
0 0 0 0 0 0 0 0 0 0 0 0 0 0 0 0 0 0 0 0 0 0 0 0 0 0 0 0 0 0 0 0 0 0 0 0 0 0 0 0 0 0 0
0 0 0 0 0 0 0 0 0 0 0 0 0 0 0 0 0 0 0 0 0 0 0 0 0 0 0 0 0 0 0 0 0 0 0 0 0 0 0 0 0 0 0
0 0 0 0 0 0 0 0 0 0 0 0 0 0 0 0 0 0 0 0 0 0 0 0 0 0 0 0 0 0 0 0 0 0 0 0 0 0 0 0 0 0 0
0 0 0 0 0 0 0 0 0 0 0 0 0 0 0 0 0 0 0 0 0 0 0 0 0 0 0 0 0 0 0 0 0 0 0 0 0 0 0 0 0 0 0
0 0 0 0 0 0 0 0 0 0 0 0 0 0 0 0 0 0 0 0 0 0 0 0 0 0 0 0 0 0 0 0 0 0 0 0 0 0 0 0 0 0 0
0 0 0 0 0 0 0 0 0 0 0 0 0 0 0 0 0 0 0 0 0 0 0 0 0 0 0 0 0 0 0 0 0 0 0 0 0 0 0 0 0 0 0
Wind_Speed_500mb
49 47 46 45 41 36 33 33 31 26 21 18 16 13 12 10 8 6 5 6 6 8 9 10 8 6 5 4 2 3 4 2 3 2 4 7 8 8 10 14 17 19 18
45 48 46 45 41 37 35 34 32 26 22 20 20 17 15 13 10 8 6 6 4 3 4 5 4 4 3 3 3 2 2 3 4 4 4 6 8 11 15 21 23 22 17
47 46 45 43 42 38 36 35 31 27 25 23 20 18 15 14 12 12 12 9 5 4 3 2 4 5 6 8 7 5 8 8 10 11 11 12 13 14 17 21 23 18 15
50 47 46 44 41 40 38 34 30 29 27 24 23 23 21 18 17 15 13 14 15 13 14 15 14 13 13 12 11 12 10 13 17 19 20 19 20 20 22 22 21 20 18
54 49 46 42 39 42 40 35 33 30 26 26 25 24 17 19 20 18 17 17 18 20 22 22 23 24 22 22 21 21 21 20 21 23 25 26 26 26 26 26 26 25 22
54 47 46 42 40 37 35 33 31 28 28 26 27 26 26 26 25 22 22 22 24 25 28 29 29 30 28 28 28 29 30 28 27 29 31 32 32 32 32 31 30 29 30
55 53 50 44 44 40 36 34 31 30 29 29 28 29 29 28 27 25 25 26 26 28 28 29 26 24 24 23 25 26 29 31 33 34 36 36 37 38 38 36 33 31 31
52 52 50 46 42 40 38 36 33 33 32 31 31 31 31 29 27 25 26 26 25 23 23 19 17 17 17 18 18 19 21 21 25 25 27 29 31 34 35 36 37 35 35
53 50 50 48 46 43 39 38 37 36 35 35 34 33 32 28 26 24 22 18 16 17 16 15 13 12 12 13 14 16 18 19 22 23 25 26 28 29 30 33 35 38 37
57 54 50 49 49 45 42 41 41 40 39 37 35 33 29 25 21 20 19 16 15 16 14 13 13 12 13 15 16 18 20 22 24 26 27 29 29 30 31 33 33 34 36
63 60 57 54 51 47 44 45 46 45 42 39 35 31 26 24 22 21 18 17 17 17 16 16 16 15 16 17 17 18 21 24 24 26 28 29 29 30 31 35 36 35 35
71 68 63 59 55 50 48 47 44 43 39 37 34 31 28 25 22 20 18 18 19 18 17 16 16 16 16 17 17 18 20 23 25 26 26 28 28 28 29 32 35 38 39
70 68 64 62 57 53 50 46 44 42 40 39 35 32 27 25 23 21 20 20 19 17 16 15 14 15 16 18 18 19 19 21 23 24 25 25 26 27 29 31 34 37 40
69 66 65 62 60 56 51 48 46 44 43 39 36 31 28 25 23 22 21 19 16 15 15 14 15 17 17 18 18 19 19 20 22 22 22 23 24 25 26 27 30 34 37
71 70 68 65 64 60 57 53 51 48 45 40 38 33 28 26 24 22 20 18 16 15 15 16 16 17 16 16 19 19 19 19 19 20 21 21 21 23 25 25 29 37 42
72 75 70 69 66 64 61 57 55 52 48 44 40 34 31 28 26 23 21 18 16 16 16 16 16 17 17 16 17 18 19 19 18 19 19 18 22 18 23 36 37 35 41
76 78 76 71 69 69 65 61 59 55 51 46 40 37 33 30 27 25 21 18 17 17 16 16 16 17 19 19 17 16 16 17 17 16 16 16 15 33 31 39 44 44 47
83 84 79 77 73 73 70 66 63 59 53 48 44 40 35 32 29 25 21 19 19 17 17 16 16 18 19 19 17 17 16 17 15 12 17 14 38 30 38 38 43 50 56
81 85 86 82 77 76 72 69 66 61 57 52 49 43 39 35 31 28 23 21 19 17 17 16 17 18 19 20 19 16 17 16 13 14 6 38 29 40 35 47 48 52 61
85 86 87 85 80 78 75 73 70 66 62 59 55 47 42 38 33 29 24 22 20 18 16 16 17 19 20 22 21 18 17 15 13 4 36 24 39 32 46 45 56 57 58
88 89 93 93 89 90 88 84 80 78 72 67 61 52 46 41 35 30 26 22 20 18 17 16 17 19 20 24 25 24 14 11 5 25 29 41 38 43 50 61 63 63 62
94 94 96 101 98 95 92 90 89 85 77 69 62 56 49 44 37 31 26 23 21 19 17 17 17 19 20 20 23 25 13 14 8 37 39 42 47 58 60 69 67 64 66
92 104 106 105 105 100 95 93 92 84 78 75 73 64 56 47 39 32 27 24 22 19 18 17 18 19 20 19 20 13 9 8 46 30 36 46 52 63 75 67 65 62 59
102 97 106 107 107 105 104 102 103 102 97 92 80 67 58 50 43 35 30 25 23 21 18 19 19 20 20 19 20 20 22 25 16 24 42 48 61 69 63 62 51 50 49
80 98 100 109 111 110 111 107 105 103 97 86 77 68 62 54 49 41 34 27 24 22 20 20 20 22 21 20 21 24 28 33 31 34 46 61 67 64 62 54 45 40 43
56 77 93 103 112 114 113 111 108 106 98 86 79 76 69 61 56 48 39 30 27 24 22 22 22 23 23 22 23 25 28 31 38 39 53 62 63 60 81 54 42 39 42
Wind_Direction_500mb
181 180 182 184 183 179 178 180 182 181 183 186 190 186 183 180 167 151 138 126 117 104 100 97 97 99 78 68 64 104 115 174 187 229 292 299 303 305 309 315 317 312 307
181 179 182 183 181 180 180 182 185 186 188 193 194 194 199 202 209 214 210 199 183 147 85 58 39 36 10 343 333 260 219 219 229 257 284 305 312 313 315 317 316 309 302
184 182 182 182 181 180 182 185 189 190 195 198 196 195 202 205 198 214 217 222 230 226 201 237 286 310 289 289 301 294 270 256 244 261 277 284 289 298 304 314 320 324 307
183 185 184 182 183 184 182 185 189 195 200 206 207 214 215 211 214 216 210 203 201 203 213 221 233 245 258 260 266 261 256 254 261 265 273 281 283 287 296 306 314 317 305
185 190 181 180 183 186 187 191 197 198 200 200 205 221 213 219 227 233 233 234 240 249 257 262 264 267 266 265 269 272 271 271 272 276 281 282 285 287 290 294 302 307 303
190 187 180 176 179 179 185 189 194 200 208 214 222 228 232 238 242 245 248 248 249 254 261 265 266 267 266 264 264 263 266 269 270 278 282 285 286 288 289 291 294 297 300
191 188 190 187 187 192 196 204 212 214 223 230 233 235 236 241 246 249 252 253 254 258 263 266 267 270 272 272 268 265 266 269 271 271 274 278 281 282 282 282 283 283 284
198 194 196 198 199 201 205 214 219 224 230 234 237 236 240 243 248 249 251 252 254 257 257 260 265 271 277 277 277 278 279 280 281 282 283 282 283 282 282 279 269 270 270
198 202 202 202 203 206 210 217 224 229 232 233 234 235 238 240 242 241 241 237 241 247 254 256 256 259 269 279 288 292 293 294 293 296 294 293 291 291 292 289 284 279 272
202 203 206 207 207 209 214 221 230 234 233 230 228 233 234 229 222 222 222 226 234 245 249 255 261 269 274 282 288 293 297 299 299 302 303 302 303 302 299 295 293 289 282
205 206 205 209 212 215 220 229 234 235 230 222 219 217 213 216 218 219 221 226 231 240 249 259 270 275 281 286 292 296 299 302 305 306 305 304 303 302 303 301 298 295 290
210 207 207 211 213 217 223 229 230 223 213 206 202 205 209 214 218 221 221 232 240 245 254 263 270 278 282 289 295 299 301 304 305 302 302 302 303 304 302 300 300 299 296
214 210 211 212 214 219 223 223 217 205 200 199 201 204 209 213 217 224 229 234 242 249 256 262 274 283 289 293 296 299 303 305 303 303 304 308 309 308 308 306 304 301 298
219 216 215 215 217 218 217 218 213 204 202 202 205 206 210 215 220 224 230 235 243 252 260 272 280 283 288 293 298 301 305 305 305 309 311 312 314 317 313 312 309 308 307
221 218 216 218 218 218 218 215 212 207 205 206 208 207 211 214 218 223 230 236 242 255 265 271 274 279 286 295 300 306 307 308 312 314 317 316 319 318 314 312 314 311 305
227 221 217 218 218 218 219 217 213 209 208 208 209 207 210 213 217 221 227 235 245 256 266 273 281 287 292 296 300 304 308 312 315 317 314 315 317 320 316 310 311 311 309
230 223 218 219 218 218 219 217 213 210 210 209 209 208 209 214 216 221 223 234 248 260 269 278 284 292 296 305 306 307 309 309 311 312 305 319 329 315 315 319 317 320 316
232 226 219 219 219 218 218 217 213 212 212 211 209 209 210 214 216 218 225 232 244 258 267 276 287 294 300 305 310 312 312 310 309 304 308 305 322 321 319 325 326 317 313
237 230 222 219 220 219 217 216 214 214 212 211 210 210 212 212 215 218 224 235 244 255 268 278 288 296 303 309 314 316 310 305 302 306 302 319 319 320 324 327 326 324 316
236 233 226 222 220 219 217 214 213 213 213 213 210 210 213 214 214 220 225 233 243 252 264 280 291 300 310 313 318 320 311 299 303 197 321 316 325 329 327 329 327 324 318
233 231 225 220 219 217 212 211 211 212 212 212 211 210 213 214 215 219 225 229 239 252 266 280 294 305 313 317 322 329 320 302 259 325 330 328 332 328 335 332 333 327 323
230 227 225 221 220 218 215 214 215 216 213 215 213 212 214 215 216 219 225 230 237 250 265 281 292 302 308 320 333 340 326 313 256 325 332 332 332 336 333 334 333 330 329
228 224 223 221 220 219 217 215 216 215 214 213 212 212 214 214 217 221 224 229 239 250 265 277 288 297 304 316 331 355 330 297 322 325 332 332 330 332 330 331 333 333 330
230 226 224 223 220 219 217 215 215 215 212 214 214 211 213 214 217 220 224 230 237 248 259 272 282 289 294 304 315 324 325 318 317 314 320 327 326 327 327 335 334 333 333
235 230 225 223 222 219 218 218 217 217 219 218 214 213 215 216 217 219 222 228 237 246 255 264 274 281 285 291 302 314 322 324 324 317 314 319 322 325 329 336 340 336 336
237 230 227 224 222 220 217 218 218 219 218 216 215 213 214 216 218 219 221 226 237 248 256 260 268 274 276 280 293 306 315 318 320 318 311 316 318 325 323 337 347 343 335
Wind_Speed_850mb
49 47 46 45 41 36 33 33 31 26 21 18 16 13 12 10 8 6 5 6 6 8 9 10 8 6 5 4 2 3 4 2 3 2 4 7 8 8 10 14 17 19 18
45 48 46 45 41 37 35 34 32 26 22 20 20 17 15 13 10 8 6 6 4 3 4 5 4 4 3 3 3 2 2 3 4 4 4 6 8 11 15 21 23 22 17
47 46 45 43 42 38 36 35 31 27 25 23 20 18 15 14 12 12 12 9 5 4 3 2 4 5 6 8 7 5 8 8 10 11 11 12 13 14 17 21 23 18 15
50 47 46 44 41 40 38 34 30 29 27 24 23 23 21 18 17 15 13 14 15 13 14 15 14 13 13 12 11 12 10 13 17 19 20 19 20 20 22 22 21 20 18
54 49 46 42 39 42 40 35 33 30 26 26 25 24 17 19 20 18 17 17 18 20 22 22 23 24 22 22 21 21 21 20 21 23 25 26 26 26 26 26 26 25 22
54 47 46 42 40 37 35 33 31 28 28 26 27 26 26 26 25 22 22 22 24 25 28 29 29 30 28 28 28 29 30 28 27 29 31 32 32 32 32 31 30 29 30
55 53 50 44 44 40 36 34 31 30 29 29 28 29 29 28 27 25 25 26 26 28 28 29 26 24 24 23 25 26 29 31 33 34 36 36 37 38 38 36 33 31 31
52 52 50 46 42 40 38 36 33 33 32 31 31 31 31 29 27 25 26 26 25 23 23 19 17 17 17 18 18 19 21 21 25 25 27 29 31 34 35 36 37 35 35
53 50 50 48 46 43 39 38 37 36 35 35 34 33 32 28 26 24 22 18 16 17 16 15 13 12 12 13 14 16 18 19 22 23 25 26 28 29 30 33 35 38 37
57 54 50 49 49 45 42 41 41 40 39 37 35 33 29 25 21 20 19 16 15 16 14 13 13 12 13 15 16 18 20 22 24 26 27 29 29 30 31 33 33 34 36
63 60 57 54 51 47 44 45 46 45 42 39 35 31 26 24 22 21 18 17 17 17 16 16 16 15 16 17 17 18 21 24 24 26 28 29 29 30 31 35 36 35 35
71 68 63 59 55 50 48 47 44 43 39 37 34 31 28 25 22 20 18 18 19 18 17 16 16 16 16 17 17 18 20 23 25 26 26 28 28 28 29 32 35 38 39
70 68 64 62 57 53 50 46 44 42 40 39 35 32 27 25 23 21 20 20 19 17 16 15 14 15 16 18 18 19 19 21 23 24 25 25 26 27 29 31 34 37 40
69 66 65 62 60 56 51 48 46 44 43 39 36 31 28 25 23 22 21 19 16 15 15 14 15 17 17 18 18 19 19 20 22 22 22 23 24 25 26 27 30 34 37
71 70 68 65 64 60 57 53 51 48 45 40 38 33 28 26 24 22 20 18 16 15 15 16 16 17 16 16 19 19 19 19 19 20 21 21 21 23 25 25 29 37 42
72 75 70 69 66 64 61 57 55 52 48 44 40 34 31 28 26 23 21 18 16 16 16 16 16 17 17 16 17 18 19 19 18 19 19 18 22 18 23 36 37 35 41
76 78 76 71 69 69 65 61 59 55 51 46 40 37 33 30 27 25 21 18 17 17 16 16 16 17 19 19 17 16 16 17 17 16 16 16 15 33 31 39 44 44 47
83 84 79 77 73 73 70 66 63 59 53 48 44 40 35 32 29 25 21 19 19 17 17 16 16 18 19 19 17 17 16 17 15 12 17 14 38 30 38 38 43 50 56
81 85 86 82 77 76 72 69 66 61 57 52 49 43 39 35 31 28 23 21 19 17 17 16 17 18 19 20 19 16 17 16 13 14 6 38 29 40 35 47 48 52 61
85 86 87 85 80 78 75 73 70 66 62 59 55 47 42 38 33 29 24 22 20 18 16 16 17 19 20 22 21 18 17 15 13 4 36 24 39 32 46 45 56 57 58
88 89 93 93 89 90 88 84 80 78 72 67 61 52 46 41 35 30 26 22 20 18 17 16 17 19 20 24 25 24 14 11 5 25 29 41 38 43 50 61 63 63 62
94 94 96 101 98 95 92 90 89 85 77 69 62 56 49 44 37 31 26 23 21 19 17 17 17 19 20 20 23 25 13 14 8 37 39 42 47 58 60 69 67 64 66
92 104 106 105 105 100 95 93 92 84 78 75 73 64 56 47 39 32 27 24 22 19 18 17 18 19 20 19 20 13 9 8 46 30 36 46 52 63 75 67 65 62 59
102 97 106 107 107 105 104 102 103 102 97 92 80 67 58 50 43 35 30 25 23 21 18 19 19 20 20 19 20 20 22 25 16 24 42 48 61 69 63 62 51 50 49
80 98 100 109 111 110 111 107 105 103 97 86 77 68 62 54 49 41 34 27 24 22 20 20 20 22 21 20 21 24 28 33 31 34 46 61 67 64 62 54 45 40 43
56 77 93 103 112 114 113 111 108 106 98 86 79 76 69 61 56 48 39 30 27 24 22 22 22 23 23 22 23 25 28 31 38 39 53 62 63 60 81 54 42 39 42
Wind_Direction_850mb
181 180 182 184 183 179 178 180 182 181 183 186 190 186 183 180 167 151 138 126 117 104 100 97 97 99 78 68 64 104 115 174 187 229 292 299 303 305 309 315 317 312 307
181 179 182 183 181 180 180 182 185 186 188 193 194 194 199 202 209 214 210 199 183 147 85 58 39 36 10 343 333 260 219 219 229 257 284 305 312 313 315 317 316 309 302
184 182 182 182 181 180 182 185 189 190 195 198 196 195 202 205 198 214 217 222 230 226 201 237 286 310 289 289 301 294 270 256 244 261 277 284 289 298 304 314 320 324 307
183 185 184 182 183 184 182 185 189 195 200 206 207 214 215 211 214 216 210 203 201 203 213 221 233 245 258 260 266 261 256 254 261 265 273 281 283 287 296 306 314 317 305
185 190 181 180 183 186 187 191 197 198 200 200 205 221 213 219 227 233 233 234 240 249 257 262 264 267 266 265 269 272 271 271 272 276 281 282 285 287 290 294 302 307 303
190 187 180 176 179 179 185 189 194 200 208 214 222 228 232 238 242 245 248 248 249 254 261 265 266 267 266 264 264 263 266 269 270 278 282 285 286 288 289 291 294 297 300
191 188 190 187 187 192 196 204 212 214 223 230 233 235 236 241 246 249 252 253 254 258 263 266 267 270 272 272 268 265 266 269 271 271 274 278 281 282 282 282 283 283 284
198 194 196 198 199 201 205 214 219 224 230 234 237 236 240 243 248 249 251 252 254 257 257 260 265 271 277 277 277 278 279 280 281 282 283 282 283 282 282 279 269 270 270
198 202 202 202 203 206 210 217 224 229 232 233 234 235 238 240 242 241 241 237 241 247 254 256 256 259 269 279 288 292 293 294 293 296 294 293 291 291 292 289 284 279 272
202 203 206 207 207 209 214 221 230 234 233 230 228 233 234 229 222 222 222 226 234 245 249 255 261 269 274 282 288 293 297 299 299 302 303 302 303 302 299 295 293 289 282
205 206 205 209 212 215 220 229 234 235 230 222 219 217 213 216 218 219 221 226 231 240 249 259 270 275 281 286 292 296 299 302 305 306 305 304 303 302 303 301 298 295 290
210 207 207 211 213 217 223 229 230 223 213 206 202 205 209 214 218 221 221 232 240 245 254 263 270 278 282 289 295 299 301 304 305 302 302 302 303 304 302 300 300 299 296
214 210 211 212 214 219 223 223 217 205 200 199 201 204 209 213 217 224 229 234 242 249 256 262 274 283 289 293 296 299 303 305 303 303 304 308 309 308 308 306 304 301 298
219 216 215 215 217 218 217 218 213 204 202 202 205 206 210 215 220 224 230 235 243 252 260 272 280 283 288 293 298 301 305 305 305 309 311 312 314 317 313 312 309 308 307
221 218 216 218 218 218 218 215 212 207 205 206 208 207 211 214 218 223 230 236 242 255 265 271 274 279 286 295 300 306 307 308 312 314 317 316 319 318 314 312 314 311 305
227 221 217 218 218 218 219 217 213 209 208 208 209 207 210 213 217 221 227 235 245 256 266 273 281 287 292 296 300 304 308 312 315 317 314 315 317 320 316 310 311 311 309
230 223 218 219 218 218 219 217 213 210 210 209 209 208 209 214 216 221 223 234 248 260 269 278 284 292 296 305 306 307 309 309 311 312 305 319 329 315 315 319 317 320 316
232 226 219 219 219 218 218 217 213 212 212 211 209 209 210 214 216 218 225 232 244 258 267 276 287 294 300 305 310 312 312 310 309 304 308 305 322 321 319 325 326 317 313
237 230 222 219 220 219 217 216 214 214 212 211 210 210 212 212 215 218 224 235 244 255 268 278 288 296 303 309 314 316 310 305 302 306 302 319 319 320 324 327 326 324 316
236 233 226 222 220 219 217 214 213 213 213 213 210 210 213 214 214 220 225 233 243 252 264 280 291 300 310 313 318 320 311 299 303 197 321 316 325 329 327 329 327 324 318
233 231 225 220 219 217 212 211 211 212 212 212 211 210 213 214 215 219 225 229 239 252 266 280 294 305 313 317 322 329 320 302 259 325 330 328 332 328 335 332 333 327 323
230 227 225 221 220 218 215 214 215 216 213 215 213 212 214 215 216 219 225 230 237 250 265 281 292 302 308 320 333 340 326 313 256 325 332 332 332 336 333 334 333 330 329
228 224 223 221 220 219 217 215 216 215 214 213 212 212 214 214 217 221 224 229 239 250 265 277 288 297 304 316 331 355 330 297 322 325 332 332 330 332 330 331 333 333 330
230 226 224 223 220 219 217 215 215 215 212 214 214 211 213 214 217 220 224 230 237 248 259 272 282 289 294 304 315 324 325 318 317 314 320 327 326 327 327 335 334 333 333
235 230 225 223 222 219 218 218 217 217 219 218 214 213 215 216 217 219 222 228 237 246 255 264 274 281 285 291 302 314 322 324 324 317 314 319 322 325 329 336 340 336 336
237 230 227 224 222 220 217 218 218 219 218 216 215 213 214 216 218 219 221 226 237 248 256 260 268 274 276 280 293 306 315 318 320 318 311 316 318 325 323 337 347 343 335